Flag for Spain Weather past 2 weeks in Pamplona, Spain

Now
84 °F

Sunny.


Feels Like: 84 °F
Forecast: 61 / 92 °F
Wind: 7 mph from South

Location: Pamplona / Noain

Current Time: Aug 2, 2015 at 2:20:06 PM

Latest Report: Aug 2, 2015 at 2:00 PM


Visibility: 10 mi

Pressure: 30.04 "Hg

Humidity: 43%

Dew point: 59 °F

Location of PamplonaLocation

Historic Weather in Pamplona — Graph

°F

Pamplona temperature yesterday

Maximum temperature yesterday: 72 °F (at 4:00 PM)
Minimum temperature yesterday: 55 °F (at 6:30 AM)
Average temperature yesterday: 65 °F

Past Weeks' High & Low Weather Summary

 TemperatureHumidityPressure
High93 °F (Jul 18, 4:00 PM)100% (Jul 31, 5:30 AM)30.18 "Hg (Jul 31, 5:30 AM)
Low52 °F (Jul 26, 5:30 AM)25% (Jul 26, 4:30 PM)29.86 "Hg (Jul 31, 5:30 AM)
Average70 °F67%30.03 "Hg
* Reported Jul 18 1:00 PM — Aug 2 1:00 PM, Pamplona, Weather by CustomWeather, © 2015

Note: Actual official high and low records may vary slightly from our data, if they occured in-between our weather recording intervals... More about our weather records

Advertising

Pamplona weather history for previous 24 hours

 ConditionsComfort  
Time TempWeatherWind HumidityBarometerVisibility
1:00 PM
Sun, Aug 2
81 °FPassing clouds.6 mph45%30.04 "HgN/A
12:30 PM79 °FPassing clouds.10 mph48%30.04 "HgN/A
12:00 PM77 °FPassing clouds.1 mph47%30.04 "HgN/A
11:30 AM72 °FPassing clouds.1 mph57%30.04 "HgN/A
11:00 AM70 °FSunny.No wind60%30.07 "Hg10 mi
10:30 AM66 °FSunny.1 mph68%30.07 "Hg10 mi
10:00 AM63 °FSunny.1 mph77%30.07 "Hg10 mi
9:30 AM61 °FSunny.1 mph77%30.07 "Hg10 mi
9:00 AM59 °FSunny.No wind82%30.07 "Hg10 mi
8:30 AM57 °FSunny.No wind88%30.07 "Hg10 mi
8:00 AM54 °FSunny.No wind94%30.07 "Hg10 mi
7:30 AM52 °FClear.No wind100%30.07 "Hg10 mi
7:00 AM52 °FClear.No wind94%30.07 "Hg10 mi
6:30 AM52 °FClear.No wind94%30.07 "Hg10 mi
6:00 AM54 °FClear.No wind94%30.07 "Hg10 mi
5:30 AM54 °FClear.No wind94%30.07 "Hg10 mi
12:00 AM59 °FClear.No wind82%30.09 "Hg10 mi
11:30 PM
Sat, Aug 1
59 °FClear.2 mph82%30.09 "Hg10 mi
11:00 PM59 °FClear.2 mph82%30.09 "Hg10 mi
10:30 PM61 °FClear.5 mph77%30.09 "Hg10 mi
10:00 PM63 °FSunny.7 mph73%30.07 "Hg10 mi
9:30 PM64 °FPassing clouds.10 mph68%30.07 "HgN/A
9:00 PM64 °FPassing clouds.10 mph68%30.04 "HgN/A
8:30 PM68 °FPassing clouds.10 mph64%30.04 "HgN/A
8:00 PM70 °FPassing clouds.9 mph57%30.04 "HgN/A
7:30 PM70 °FPassing clouds.8 mph53%30.04 "HgN/A
7:00 PM72 °FPassing clouds.13 mph50%30.04 "HgN/A
6:30 PM72 °FPassing clouds.10 mph50%30.07 "HgN/A
6:00 PM72 °FPassing clouds.12 mph50%30.07 "HgN/A
5:30 PM72 °FPassing clouds.10 mph50%30.07 "HgN/A
5:00 PM70 °FPassing clouds.10 mph53%30.07 "HgN/A
4:30 PM70 °FScattered clouds.9 mph53%30.07 "HgN/A
4:00 PM72 °FPassing clouds.8 mph47%30.07 "HgN/A
3:30 PM70 °FPassing clouds.10 mph53%30.07 "HgN/A
3:00 PM70 °FScattered clouds.13 mph50%30.07 "HgN/A
2:30 PM70 °FScattered clouds.14 mph50%30.07 "HgN/A
2:00 PM70 °FScattered clouds.15 mph50%30.07 "HgN/A
Weather by CustomWeather, © 2015

See weather overviewHow to use our weather pages